Content
SEND FEEDBACK

Daily
Averages
Monthly
Summary
United States of America

STEAMBOAT SPRINGS, COLORADO


Home > North America > United States > Colorado
Elevation: 6917 feet     Latitude: 40 30N     Longitude: 106 50W

WEATHER
 
SELECT A DAY
Number of Records: 82,544;   Date Range: 1/3/95 - 7/21/14
 
SHARE

PRINT THIS DATA

[ ← Previous Day ]
WEATHER ALMANAC - APRIL 8, 2013
[ Next Day → ]
[ °C ]   °F
Weather ElementAverageHighLow
Temperature45.2 °F58.3 °F (1:35 pm)34.9 °F (3:35 am)
Dewpoint23.4 °F34.9 °F (10:15 pm)12.6 °F (1:15 pm)
Humidity47.9 %96 % (11:15 pm)17 % (1:15 pm)
Barometer29.54 in29.73 in (12:35 am)29.42 in (4:35 pm)
Wind Speed7 mph20.7 mph (4:35 pm)
Wind Gust32.2 mph (4:35 pm)
Weather ElementAverage
Visibility9.9 mi
Wind DirectionESE (104.2 °)

Weather ElementTotal
Precipitation---
Heating Degree Days18.4 (Base 65)
Averaged from 71 records on April 8, 2013
WEATHER CONDITIONS BREAKOUT
WIND DIRECTION BREAKOUT
WEATHER BY HOUR - APRIL 8, 2013
[ °C ]   °F
Local TimeTemperatureDewpointHumidityBarometerVisibilityWind DirectionWind SpeedGust SpeedPrecipitationEventsConditions
12:35 AM40.1 °F25.7 °F56 %29.73 in10.0 miENE (60°)3.5 mphScattered Clouds
12:55 AM40.1 °F24.3 °F53 %29.73 in10.0 miCalmScattered Clouds
1:15 AM39.6 °F24.4 °F55 %29.72 in10.0 miCalmScattered Clouds
1:35 AM39.0 °F24.1 °F55 %29.72 in10.0 miCalmScattered Clouds
1:55 AM37.8 °F25.5 °F61 %29.72 in10.0 miSE (130°)8.1 mphOvercast
2:15 AM36.5 °F26.4 °F67 %29.72 in10.0 miCalmOvercast
2:35 AM39.9 °F23.4 °F52 %29.69 in10.0 miEast (100°)9.2 mphOvercast
2:55 AM39.9 °F21.7 °F48 %29.68 in10.0 miCalmMostly Cloudy
3:15 AM35.2 °F26.2 °F70 %29.68 in10.0 miWNW (300°)5.8 mphScattered Clouds
3:35 AM34.9 °F26.4 °F71 %29.67 in10.0 miNNE (20°)5.8 mphScattered Clouds
3:55 AM36.0 °F25.7 °F66 %29.68 in10.0 miCalmMostly Cloudy
4:15 AM36.0 °F26.2 °F68 %29.66 in10.0 miNW (320°)9.2 mphOvercast
4:35 AM36.7 °F25.2 °F63 %29.65 in10.0 miNE (50°)4.6 mphOvercast
4:55 AM37.2 °F24.6 °F60 %29.65 in10.0 miSE (130°)4.6 mphOvercast
5:15 AM36.0 °F26.2 °F68 %29.67 in10.0 miNNE (30°)4.6 mphOvercast
5:35 AM36.7 °F25.3 °F64 %29.64 in10.0 miCalmOvercast
5:55 AM39.7 °F24.1 °F54 %29.62 in10.0 miENE (60°)11.5 mphScattered Clouds
6:15 AM41.9 °F23.5 °F48 %29.61 in10.0 miENE (70°)10.4 mphClear
6:35 AM42.1 °F22.5 °F46 %29.60 in10.0 miENE (70°)10.4 mphScattered Clouds
6:55 AM42.1 °F23.0 °F47 %29.60 in10.0 miEast (80°)10.4 mphMostly Cloudy
7:15 AM43.3 °F21.9 °F43 %29.61 in10.0 miCalmOvercast
7:35 AM40.1 °F24.6 °F54 %29.60 in10.0 miNW (320°)6.9 mphOvercast
7:55 AM43.2 °F22.1 °F43 %29.59 in10.0 miEast (90°)8.1 mphOvercast
8:15 AM43.2 °F23.0 °F45 %29.60 in10.0 miEast (100°)6.9 mphOvercast
8:35 AM42.8 °F24.3 °F48 %29.60 in10.0 miCalmOvercast
8:55 AM41.9 °F25.9 °F53 %29.60 in10.0 miNW (310°)6.9 mphOvercast
9:15 AM43.9 °F24.1 °F46 %29.59 in10.0 miCalmScattered Clouds
9:35 AM46.4 °F23.5 °F41 %29.58 in10.0 miESE (110°)5.8 mphClear
9:55 AM45.5 °F26.4 °F47 %29.57 in10.0 miCalmClear
10:15 AM46.9 °F25.5 °F43 %29.56 in10.0 miCalmClear
10:35 AM49.8 °F25.0 °F38 %29.55 in10.0 miCalmClear
10:55 AM54.0 °F20.1 °F27 %29.54 in10.0 miESE (110°)5.8 mphClear
11:15 AM54.3 °F16.5 °F23 %29.52 in10.0 miESE (120°)15.0 mph19.6 mphClear
11:35 AM53.8 °F16.2 °F23 %29.51 in10.0 miESE (110°)15.0 mph20.7 mphClear
11:55 AM55.2 °F14.0 °F20 %29.51 in10.0 miESE (120°)16.1 mph21.9 mphClear
12:15 PM55.6 °F14.2 °F20 %29.50 in10.0 miSE (130°)10.4 mph23.0 mphClear
12:35 PM56.7 °F15.3 °F20 %29.49 in10.0 miESE (120°)13.8 mph26.5 mphClear
12:55 PM57.2 °F14.7 °F19 %29.48 in10.0 miESE (120°)5.8 mph16.1 mphClear
1:15 PM57.2 °F12.6 °F17 %29.47 in10.0 miESE (120°)12.7 mphScattered Clouds
1:35 PM58.3 °F14.9 °F18 %29.45 in10.0 miSSE (150°)11.5 mph16.1 mphClear
1:55 PM58.1 °F13.6 °F17 %29.44 in10.0 miSE (140°)9.2 mphScattered Clouds
2:15 PM57.2 °F12.6 °F17 %29.43 in10.0 miSouth (190°)11.5 mph17.3 mphScattered Clouds
2:35 PM56.3 °F14.4 °F19 %29.44 in10.0 miSSW (200°)9.2 mphClear
2:55 PM55.0 °F13.3 °F19 %29.44 in10.0 miSSW (200°)12.7 mphClear
3:15 PM55.6 °F14.4 °F20 %29.43 in10.0 miSouth (180°)12.7 mph23.0 mphScattered Clouds
3:35 PM54.9 °F14.2 °F20 %29.43 in10.0 miSouth (180°)9.2 mphScattered Clouds
3:55 PM54.0 °F14.4 °F21 %29.43 in10.0 miSE (140°)11.5 mphMostly Cloudy
4:15 PM54.3 °F16.5 °F23 %29.44 in10.0 miSE (130°)11.5 mph17.3 mphMostly Cloudy
4:35 PM52.7 °F19.2 °F27 %29.42 in10.0 miSE (140°)20.7 mph32.2 mphScattered Clouds
4:55 PM51.8 °F19.2 °F28 %29.42 in10.0 miESE (120°)16.1 mph24.2 mphScattered Clouds
5:15 PM51.1 °F20.7 °F30 %29.43 in10.0 miSE (140°)13.8 mph17.3 mphScattered Clouds
5:35 PM49.8 °F23.4 °F36 %29.42 in10.0 miESE (120°)6.9 mphMostly Cloudy
5:55 PM50.0 °F21.6 °F33 %29.42 in10.0 miSE (130°)10.4 mph24.2 mphScattered Clouds
6:15 PM49.1 °F23.9 °F37 %29.42 in10.0 miENE (70°)8.1 mphScattered Clouds
6:35 PM48.2 °F25.2 °F41 %29.42 in10.0 miEast (90°)4.6 mphScattered Clouds
6:55 PM47.5 °F24.8 °F41 %29.42 in10.0 miCalmMostly Cloudy
7:15 PM46.6 °F25.3 °F43 %29.43 in10.0 miCalmOvercast
7:35 PM45.9 °F26.2 °F46 %29.43 in10.0 miWNW (300°)3.5 mphOvercast
7:55 PM45.9 °F26.8 °F47 %29.46 in10.0 miESE (120°)9.2 mphOvercast
8:15 PM45.0 °F30.4 °F57 %29.45 in10.0 miNE (50°)16.1 mph19.6 mphOvercast
8:35 PM43.3 °F29.7 °F59 %29.45 in10.0 miNE (50°)11.5 mph17.3 mphOvercast
8:55 PM43.7 °F30.0 °F59 %29.48 in10.0 miWNW (300°)5.8 mphOvercast
9:15 PM41.9 °F31.6 °F67 %29.48 in10.0 miWNW (300°)12.7 mph18.4 mphOvercast
9:35 PM39.6 °F32.4 °F75 %29.49 in10.0 miWNW (290°)16.1 mph21.9 mphOvercast
9:55 PM37.0 °F34.3 °F90 %29.52 in10.0 miWNW (290°)10.4 mph19.6 mphOvercast
10:15 PM36.5 °F34.9 °F94 %29.58 in7.0 miCalmOvercast
10:35 PM35.6 °F34.2 °F94 %29.53 in3.0 miEast (80°)5.8 mph9.2 mphOvercast
10:55 PM36.5 °F34.0 °F91 %29.52 in10.0 miCalmMostly Cloudy
11:15 PM35.2 °F34.2 °F96 %29.53 in10.0 miCalmOvercast
11:35 PM35.6 °F34.5 °F96 %29.52 in10.0 miCalmOvercast
11:55 PM35.2 °F34.2 °F96 %29.53 in10.0 miCalmOvercast
Hourly data recorded from KSBS, located miles away from Steamboat Springs, Colorado







STORIES FROM OUR PARTNERS